Regional Weather Roundup
Issued by NWS Charleston, WV

Home | Current Version | Previous Version | Graphics & Text | Print | Product List | Glossary On
Versions: 1 2 3 4 5 6 7 8 9 10 11 12 13 14 15 16 17 18 19 20 21 22 23 24 25 26 27 28 29 30 31 32 33 34 35 36 37 38 39 40 41 42 43 44 45 46 47 48 49 50
911
ASUS41 KRLX 140610
RWRRLX
West Virginia Regional Weather Roundup
National Weather Service Charleston WV
100 AM EST SUN FEB 14 2016

Note: "fair" indicates few or no clouds below 12,000 feet with no
significant weather and/or obstructions to visibility.

WVZ003-140700-
Northern Panhandle of West Virginia

CITY           SKY/WX    TMP DP  RH WIND       PRES   REMARKS
WHEELING         N/A      7   2  80 CALM      30.41S
$$

WVZ009-140700-
Northwest West Virginia

CITY           SKY/WX    TMP DP  RH WIND       PRES   REMARKS
PARKERSBURG      N/A      3  -4  72 CALM      30.50S
$$

WVZ006-140700-
Western West Virginia

CITY           SKY/WX    TMP DP  RH WIND       PRES   REMARKS
HUNTINGTON       N/A     10   1  67 CALM      30.48F
$$

WVZ015-140700-
West Central West Virginia

CITY           SKY/WX    TMP DP  RH WIND       PRES   REMARKS
CHARLESTON       N/A      7  -1  70 CALM      30.46F
$$

WVZ022-031-140700-
North Central West Virginia

CITY           SKY/WX    TMP DP  RH WIND       PRES   REMARKS
CLARKSBURG       N/A      5  -6  60 W3        30.43S
MORGANTOWN     NOT AVBL
$$

WVZ025-035-042-045-140700-
Southern West Virginia

CITY           SKY/WX    TMP DP  RH WIND       PRES   REMARKS
BECKLEY          N/A      2  -7  66 N5        30.30F WCI  -8
LOGAN            N/A      9  -2  61 CALM      30.39F
BLUEFIELD        N/A      4  -6  63 CALM      30.26F
LEWISBURG        N/A      8  -5  55 NW6       30.31F WCI  -2
$$

WVZ047-140700-
Northern Mountains of West Virginia

CITY           SKY/WX    TMP DP  RH WIND       PRES   REMARKS
ELKINS           N/A     -1 -10  65 CALM      30.35S
$$

WVZ052-140700-
Eastern Panhandle of West Virginia

CITY           SKY/WX    TMP DP  RH WIND       PRES   REMARKS
MARTINSBURG      N/A     11  -4  51 NW9       30.43R WCI  -2
PETERSBURG     MOCLDY    12  -3  50 CALM      30.42S
$$




USA.gov is the U.S. government's official web portal to all federal, state and local government web resources and services.